Orbital Elements at Epoch 2459200.5 (2020-Dec-17.0) TDB
Reference: JPL 31 (heliocentric ecliptic J2000)
Element | Value | Uncertainty (1-sigma) | Units |
e | .1705513101136303 | 1.5469e-08 | |
a | 2.674004040690626 | 8.9524e-09 | au |
q | 2.217949148301699 | 3.9464e-08 | au |
i | 12.5167692060523 | 7.0676e-07 | deg |
node | 179.1661684026625 | 4.7691e-06 | deg |
peri | 93.67644182552101 | 1.3446e-05 | deg |
M | 68.89768256751447 | 7.9453e-06 | deg |
tp | 2458894.836466582439 (2020-Feb-15.33646658) | 3.5139e-05 | TDB |
period | 1597.134590448555 4.37 | 8.0207e-06 2.196e-08 | d yr |
n | .2254036711451438 | 1.132e-09 | deg/d |
Q | 3.130058933079553 | 1.0479e-08 | au |
|
| | Orbit Determination Parameters
Additional Information
|